Weather in Luzany

Ukraine / Chernovtci District     48°21′39″N   25°46′46″E
temp.,
°C
wind,
m/s
gust,
m/s
humid.,
%
clouds,
%
prec.,
mm/h
press.,
hPa
HPBL,
m
1 march, mon
mon123:00+3nw61475100 0.0 1028974
02:00+1nw71397100 4.1 1028659
05:00+1nw4998100 2.9 1028454
08:00+2nw51098100 3.8 1030569
11:00+3nnw5884100 0.4 1031814
14:00+4nnw467995 0.7 1032931
17:00+3wnw588892 0.2 1033542
20:00+2wnw378796 0.3 1035310
2 march, tue
tue223:00+1wnw379495 0.1 1035235
02:000w229157 0.1 103631
05:000w23841 0.0 103469
08:00+1w25751 0.0 1034190
11:00+6wnw58536 0.0 1032537
14:00+10nw611493 0.0 1030789
17:00+9nw511600 0.0 1028429
20:00+5nw413800 0.0 1030310
3 march, wed
wed323:00+4wnw618730 0.0 1031567
02:00+3wnw515790 0.0 1032412
05:00+1wnw411860 0.0 1032310
08:00+1wnw39878 0.0 1032323
11:00+5nw467962 0.0 1032611
14:00+7nnw357479 0.0 1030712
17:00+6n237640 0.0 1028370
20:00+3sse228920 0.0 102922
4 march, thu
thu423:00+2sse33910 0.0 102743
02:00+2s22860 0.0 102522
05:00+1ssw11743 0.0 102322
08:00+3wsw11652 0.0 102123
11:00+9nw22480 0.0 1018333
14:00+12nw24402 0.0 10161080
17:00+11nw235113 0.0 1014111
20:00+6sw236612 0.0 101529
5 march, fri
fri523:00+4sw226712 0.0 101524
02:00+4wsw116733 0.0 101422
05:00+5ssw356477 0.1 101274
08:00+7ssw486088 0.1 1011160
11:00+9ssw51053100 0.0 10091107
14:00+11wsw51147100 0.0 10081618
17:00+10w485999 0.0 1009614
20:00+6nw6109092 1.3 1012702